• In Deutschland
  • Länderverzeichnis
  • Für 7 Tage
  • Wassertemperatur
  • Satellitenkarten
  • Wetterkarte
  • Widgets
  • user-avatar
    Anmelden

    Stündliche Wetter Ibiúna

    Heute, 18 August, Samstag

    Zeit Temperatur Niederschläge Wind Luftdruck Luftfeuchtigkeit
    00:00 +13°C° 0,1 mm 3 m/S 692 mmHg 88%
    01:00 +13°C° 0 mm 3 m/S 691 mmHg 89%
    02:00 +13°C° 0 mm 3 m/S 691 mmHg 90%
    03:00 +13°C° 0 mm 3 m/S 691 mmHg 90%
    04:00 +13°C° 0,1 mm 3 m/S 691 mmHg 90%
    05:00 +14°C° 0,1 mm 2 m/S 691 mmHg 90%
    06:00 +14°C° 0,1 mm 2 m/S 691 mmHg 91%
    07:00 +15°C° 0 mm 2 m/S 691 mmHg 87%
    08:00 +16°C° 0 mm 2 m/S 692 mmHg 83%
    09:00 +16°C° 0 mm 3 m/S 692 mmHg 79%
    10:00 +18°C° 0 mm 2 m/S 692 mmHg 73%
    11:00 +19°C° 0 mm 2 m/S 692 mmHg 67%
    12:00 +21°C° 0 mm 2 m/S 692 mmHg 61%
    13:00 +21°C° 0 mm 2 m/S 692 mmHg 62%
    14:00 +21°C° 0 mm 2 m/S 691 mmHg 62%
    15:00 +21°C° 0 mm 2 m/S 690 mmHg 63%
    16:00 +20°C° 0 mm 2 m/S 690 mmHg 69%
    17:00 +18°C° 0 mm 2 m/S 690 mmHg 75%
    18:00 +17°C° 0 mm 2 m/S 690 mmHg 81%
    19:00 +17°C° 0 mm 2 m/S 690 mmHg 84%
    20:00 +16°C° 0 mm 2 m/S 690 mmHg 87%
    21:00 +15°C° 0 mm 2 m/S 691 mmHg 90%
    22:00 +15°C° 0 mm 2 m/S 691 mmHg 91%
    23:00 +15°C° 0 mm 2 m/S 691 mmHg 92%

    Morgen, 19 August, Sonntag

    Zeit Temperatur Niederschläge Wind Luftdruck Luftfeuchtigkeit
    00:00 +15°C° 0 mm 2 m/S 690 mmHg 93%
    01:00 +14°C° 0 mm 2 m/S 690 mmHg 93%
    02:00 +14°C° 0 mm 1 m/S 690 mmHg 94%
    03:00 +14°C° 0 mm 1 m/S 689 mmHg 94%
    04:00 +14°C° 0 mm 1 m/S 689 mmHg 94%
    05:00 +13°C° 0 mm 1 m/S 689 mmHg 93%
    06:00 +13°C° 0 mm 1 m/S 689 mmHg 93%
    07:00 +15°C° 0 mm 1 m/S 690 mmHg 85%
    08:00 +18°C° 0 mm 1 m/S 691 mmHg 77%
    09:00 +20°C° 0 mm 1 m/S 692 mmHg 68%
    10:00 +22°C° 0 mm 1 m/S 692 mmHg 61%
    11:00 +24°C° 0 mm 1 m/S 692 mmHg 53%
    12:00 +26°C° 0 mm 1 m/S 692 mmHg 45%
    13:00 +26°C° 0 mm 1 m/S 692 mmHg 45%
    14:00 +26°C° 0 mm 1 m/S 691 mmHg 44%
    15:00 +26°C° 0 mm 1 m/S 690 mmHg 44%
    16:00 +24°C° 0 mm 1 m/S 690 mmHg 51%
    17:00 +22°C° 0 mm 1 m/S 689 mmHg 59%
    18:00 +20°C° 0 mm 1 m/S 689 mmHg 67%
    19:00 +19°C° 0 mm 1 m/S 690 mmHg 71%
    20:00 +19°C° 0 mm 1 m/S 690 mmHg 75%
    21:00 +18°C° 0 mm 1 m/S 690 mmHg 79%
    22:00 +18°C° 0 mm 1 m/S 690 mmHg 80%
    23:00 +16°C° 0 mm 1 m/S 690 mmHg 82%

    übermorgen, 20 August, Montag

    Zeit Temperatur Niederschläge Wind Luftdruck Luftfeuchtigkeit
    00:00 +16°C° 0 mm 1 m/S 690 mmHg 83%
    01:00 +16°C° 0 mm 1 m/S 690 mmHg 83%
    02:00 +15°C° 0 mm 1 m/S 690 mmHg 84%
    03:00 +15°C° 0 mm 1 m/S 689 mmHg 84%
    04:00 +15°C° 0 mm 1 m/S 689 mmHg 84%
    05:00 +15°C° 0 mm 1 m/S 689 mmHg 83%
    06:00 +14°C° 0 mm 1 m/S 689 mmHg 83%
    07:00 +18°C° 0 mm 1 m/S 690 mmHg 74%
    08:00 +20°C° 0 mm 1 m/S 691 mmHg 66%
    09:00 +22°C° 0 mm 1 m/S 692 mmHg 57%
    10:00 +24°C° 0 mm 1 m/S 692 mmHg 50%
    11:00 +26°C° 0 mm 1 m/S 692 mmHg 44%
    12:00 +27°C° 0 mm 1 m/S 692 mmHg 37%
    13:00 +27°C° 0 mm 1 m/S 692 mmHg 37%
    14:00 +27°C° 0 mm 1 m/S 691 mmHg 36%
    15:00 +27°C° 0 mm 1 m/S 690 mmHg 36%
    16:00 +25°C° 0 mm 1 m/S 690 mmHg 43%
    17:00 +23°C° 0 mm 1 m/S 690 mmHg 51%
    18:00 +19°C° 0 mm 0 m/S 689 mmHg 58%
    19:00 +21°C° 0 mm 1 m/S 690 mmHg 61%
    20:00 +20°C° 0 mm 1 m/S 690 mmHg 64%
    21:00 +19°C° 0 mm 1 m/S 690 mmHg 67%
    22:00 +19°C° 0 mm 1 m/S 690 mmHg 68%
    23:00 +18°C° 0 mm 1 m/S 690 mmHg 70%

    21 August, Dienstag

    Zeit Temperatur Niederschläge Wind Luftdruck Luftfeuchtigkeit
    00:00 +18°C° 0 mm 1 m/S 690 mmHg 72%
    01:00 +18°C° 0 mm 1 m/S 690 mmHg 72%
    02:00 +16°C° 0 mm 1 m/S 689 mmHg 73%
    03:00 +16°C° 0 mm 1 m/S 689 mmHg 74%
    04:00 +16°C° 0 mm 1 m/S 689 mmHg 74%
    05:00 +15°C° 0 mm 1 m/S 689 mmHg 75%
    06:00 +15°C° 0 mm 1 m/S 690 mmHg 75%
    07:00 +18°C° 0 mm 1 m/S 690 mmHg 69%
    08:00 +20°C° 0 mm 1 m/S 691 mmHg 62%
    09:00 +22°C° 0 mm 1 m/S 692 mmHg 55%
    10:00 +23°C° 0 mm 2 m/S 692 mmHg 50%
    11:00 +25°C° 0 mm 2 m/S 692 mmHg 46%
    12:00 +27°C° 0 mm 2 m/S 692 mmHg 41%
    13:00 +27°C° 0 mm 2 m/S 691 mmHg 42%
    14:00 +27°C° 0 mm 2 m/S 691 mmHg 42%
    15:00 +27°C° 0 mm 2 m/S 691 mmHg 43%
    16:00 +25°C° 0 mm 2 m/S 691 mmHg 53%
    17:00 +23°C° 0 mm 2 m/S 690 mmHg 63%
    18:00 +20°C° 0 mm 2 m/S 690 mmHg 73%
    19:00 +19°C° 0 mm 2 m/S 690 mmHg 78%
    20:00 +18°C° 0 mm 2 m/S 691 mmHg 82%
    21:00 +17°C° 0 mm 2 m/S 691 mmHg 87%
    22:00 +17°C° 0 mm 2 m/S 691 mmHg 88%
    23:00 +16°C° 0 mm 2 m/S 691 mmHg 89%

    22 August, Mittwoch

    Zeit Temperatur Niederschläge Wind Luftdruck Luftfeuchtigkeit
    00:00 +16°C° 0 mm 2 m/S 691 mmHg 89%
    01:00 +15°C° 0 mm 2 m/S 690 mmHg 90%
    02:00 +15°C° 0 mm 1 m/S 690 mmHg 91%
    03:00 +15°C° 0 mm 1 m/S 690 mmHg 92%
    04:00 +15°C° 0 mm 1 m/S 690 mmHg 92%
    05:00 +15°C° 0 mm 1 m/S 690 mmHg 92%
    06:00 +15°C° 0 mm 1 m/S 690 mmHg 91%
    07:00 +18°C° 0 mm 1 m/S 690 mmHg 82%
    08:00 +19°C° 0 mm 1 m/S 691 mmHg 72%
    09:00 +21°C° 0 mm 1 m/S 692 mmHg 63%
    10:00 +23°C° 0 mm 1 m/S 692 mmHg 56%
    11:00 +25°C° 0 mm 2 m/S 692 mmHg 49%
    12:00 +27°C° 0 mm 2 m/S 692 mmHg 42%
    13:00 +27°C° 0 mm 2 m/S 691 mmHg 44%
    14:00 +26°C° 0 mm 2 m/S 691 mmHg 46%
    15:00 +26°C° 0 mm 2 m/S 690 mmHg 48%
    16:00 +24°C° 0,1 mm 2 m/S 690 mmHg 55%
    17:00 +23°C° 0,1 mm 2 m/S 690 mmHg 62%
    18:00 +21°C° 0,1 mm 1 m/S 689 mmHg 69%
    19:00 +19°C° 0,3 mm 2 m/S 690 mmHg 75%
    20:00 +19°C° 0,3 mm 2 m/S 690 mmHg 81%
    21:00 +18°C° 0,3 mm 2 m/S 690 mmHg 87%
    22:00 +17°C° 0,2 mm 2 m/S 690 mmHg 88%
    23:00 +17°C° 0,2 mm 2 m/S 689 mmHg 89%

    23 August, Donnerstag

    Zeit Temperatur Niederschläge Wind Luftdruck Luftfeuchtigkeit
    00:00 +17°C° 0,2 mm 2 m/S 689 mmHg 91%
    01:00 +16°C° 0,1 mm 2 m/S 689 mmHg 91%
    02:00 +16°C° 0,1 mm 2 m/S 689 mmHg 92%
    03:00 +16°C° 0,1 mm 1 m/S 689 mmHg 93%
    04:00 +16°C° 0 mm 1 m/S 689 mmHg 93%
    05:00 +15°C° 0 mm 1 m/S 689 mmHg 93%
    06:00 +15°C° 0 mm 1 m/S 689 mmHg 93%
    07:00 +18°C° 0 mm 1 m/S 689 mmHg 84%
    08:00 +19°C° 0 mm 2 m/S 690 mmHg 74%
    09:00 +21°C° 0 mm 2 m/S 690 mmHg 65%
    10:00 +24°C° 0 mm 2 m/S 690 mmHg 56%
    11:00 +26°C° 0 mm 2 m/S 690 mmHg 48%
    12:00 +28°C° 0 mm 2 m/S 691 mmHg 39%
    13:00 +28°C° 0 mm 2 m/S 690 mmHg 39%
    14:00 +28°C° 0 mm 2 m/S 689 mmHg 40%
    15:00 +28°C° 0 mm 2 m/S 689 mmHg 40%
    16:00 +26°C° 0,3 mm 2 m/S 689 mmHg 49%
    17:00 +25°C° 0,3 mm 1 m/S 689 mmHg 57%
    18:00 +23°C° 0,3 mm 1 m/S 688 mmHg 66%
    19:00 +22°C° 0,2 mm 1 m/S 689 mmHg 71%
    20:00 +21°C° 0,2 mm 1 m/S 689 mmHg 76%
    21:00 +19°C° 0,2 mm 2 m/S 689 mmHg 81%
    22:00 +19°C° 0 mm 1 m/S 689 mmHg 82%
    23:00 +19°C° 0 mm 1 m/S 689 mmHg 84%
    Mehr zeigen